Date,TemperatureHighF,TemperatureAvgF,TemperatureLowF,DewpointHighF,DewpointAvgF,DewpointLowF,HumidityHigh,HumidityAvg,HumidityLow,PressureMaxIn,PressureMinIn,WindSpeedMaxMPH,WindSpeedAvgMPH,GustSpeedMaxMPH,PrecipitationSumIn
2013-1-1,44,41,35,6,4,-2,22,21,20,29.94,29.80,12,6,13,0.00
2013-1-2,39,31,23,0,-5,-10,22,20,19,30.12,29.88,15,4,15,0.00
2013-1-3,40,29,23,8,-4,-9,41,24,18,30.12,29.97,11,4,15,0.00
2013-1-4,44,35,28,7,0,-3,39,22,18,30.09,29.88,15,7,17,0.00
2013-1-5,46,36,29,7,0,-4,31,22,17,30.30,30.00,12,4,15,0.00
2013-1-6,56,43,32,29,11,-1,78,29,17,30.12,29.91,12,4,12,0.00
2013-1-7,54,41,26,11,6,-3,51,24,17,30.33,30.00,13,4,13,0.00
2013-1-8,59,41,26,32,14,4,89,39,17,30.33,30.18,18,3,18,0.00
2013-1-9,60,46,33,34,17,10,83,36,17,30.27,30.03,10,3,11,0.00
2013-1-10,55,44,36,14,8,2,32,22,18,30.39,30.18,13,4,13,0.00
2013-1-11,51,44,34,49,26,8,92,53,27,30.39,29.94,13,3,13,0.00
2013-1-12,65,51,46,49,40,14,92,73,15,30.00,29.94,7,2,7,0.00
2013-1-13,55,50,45,52,47,42,92,90,87,30.00,29.85,10,2,10,0.00
2013-1-14,60,54,45,56,37,10,91,61,21,30.15,29.83,17,3,17,0.00
2013-1-15,46,42,38,43,25,6,91,57,23,30.15,30.03,15,4,15,0.00
2013-1-16,43,41,38,40,38,35,91,88,84,30.03,29.65,11,4,13,0.00
2013-1-17,47,42,38,42,18,3,92,45,19,29.97,29.83,11,4,11,0.00
2013-1-18,41,33,23,9,-2,-10,30,22,18,30.39,29.91,23,5,23,0.00
2013-1-19,58,42,27,14,6,-8,40,23,17,30.33,29.88,14,7,15,0.00
2013-1-20,62,45,31,15,6,-6,31,20,16,30.00,29.71,23,8,23,0.00
2013-1-21,40,32,26,29,0,-8,87,27,18,30.03,29.74,13,5,14,0.00
2013-1-22,27,20,14,-4,-12,-17,27,23,21,30.21,29.83,24,9,24,0.00
2013-1-23,29,18,11,-7,-13,-19,24,23,20,30.24,30.06,19,6,19,0.00
2013-1-24,30,21,14,-4,-11,-14,41,24,20,30.42,30.03,23,6,23,0.00
2013-1-25,27,20,15,10,-6,-15,60,32,21,30.42,30.00,10,3,10,0.00
2013-1-26,33,24,15,11,-4,-13,69,31,20,30.36,30.00,15,5,19,0.00
2013-1-27,44,26,14,3,-4,-9,44,27,18,30.50,30.36,10,3,12,0.00
2013-1-28,42,37,24,36,19,-6,84,51,23,30.45,29.97,14,4,14,0.00
2013-1-29,63,47,38,40,29,13,90,58,16,30.03,29.91,9,2,9,0.00
2013-1-30,72,61,42,63,42,29,92,56,21,29.91,29.18,32,8,32,0.00
2013-1-31,68,47,28,62,13,-7,90,29,17,29.80,29.00,38,13,38,0.00
2013-2-1,34,28,20,26,-4,-12,82,27,20,30.27,29.71,28,8,28,0.00
2013-2-2,35,25,12,16,-6,-18,54,26,20,30.30,29.97,16,6,16,0.00
2013-2-3,46,32,25,25,9,-4,79,42,18,29.97,29.77,20,2,20,0.00
2013-2-4,34,29,23,-1,-6,-10,25,21,20,29.97,29.83,20,7,20,0.00
2013-2-5,38,35,31,31,10,-2,85,37,21,29.85,29.71,8,3,8,0.00
2013-2-6,44,35,26,33,13,-4,93,49,18,30.27,29.85,16,3,16,0.00
2013-2-7,40,32,23,13,1,-6,58,27,18,30.36,30.15,13,5,13,0.00
2013-2-8,44,40,34,41,24,-1,91,58,22,30.15,29.53,24,8,24,0.00
2013-2-9,38,31,24,3,-4,-9,25,21,19,30.30,29.74,28,10,28,0.00
2013-2-10,52,32,16,10,-2,-14,34,22,17,30.42,30.21,11,3,11,0.00
2013-2-11,58,47,35,55,38,0,92,74,22,30.21,29.56,16,4,16,0.00
2013-2-12,54,44,32,23,8,1,39,23,18,29.88,29.71,22,5,22,0.00
2013-2-13,49,37,27,35,14,1,92,44,19,29.85,29.50,11,3,11,0.00
2013-2-14,57,40,32,36,17,1,93,49,17,29.88,29.62,11,3,11,0.00
2013-2-15,67,45,32,31,16,6,84,34,15,29.91,29.80,15,4,15,0.00
2013-2-16,43,37,32,37,19,-5,92,54,20,29.88,29.68,17,5,17,0.00
2013-2-17,35,29,24,-2,-7,-10,22,20,20,30.06,29.68,29,11,29,0.00
2013-2-18,42,29,20,1,-6,-12,22,20,18,30.27,30.06,19,7,26,0.00
2013-2-19,51,42,30,45,15,-7,86,37,19,30.12,29.62,17,7,19,0.00
2013-2-20,39,32,25,2,-4,-9,21,20,19,30.03,29.74,28,11,28,0.00
2013-2-21,39,30,23,0,-6,-10,22,21,19,30.24,29.94,25,8,25,0.00
2013-2-22,39,33,26,32,3,-8,82,30,19,30.30,30.12,13,5,13,0.00
2013-2-23,50,45,37,48,43,32,95,92,82,30.15,29.71,14,5,14,0.00
2013-2-24,52,43,33,43,18,-4,93,45,18,29.97,29.71,23,7,23,0.00
2013-2-25,55,38,30,16,3,-6,51,23,17,30.12,29.97,14,4,14,0.00
2013-2-26,47,40,28,45,23,4,92,59,20,30.15,29.59,30,8,30,0.00
2013-2-27,60,51,44,49,28,6,93,52,17,29.59,29.32,23,6,23,0.00
2013-2-28,52,44,35,32,11,4,65,27,19,29.59,29.44,17,5,17,0.00
2013-3-1,48,41,36,15,8,1,41,25,19,29.74,29.56,15,6,15,0.00
2013-3-2,43,37,31,5,0,-3,31,21,18,29.77,29.65,15,6,15,0.00
2013-3-3,42,35,29,4,-2,-7,28,20,18,29.77,29.65,22,8,22,0.00
2013-3-4,44,35,29,2,-3,-7,20,19,18,29.94,29.74,26,9,26,0.00
2013-3-5,56,38,28,20,2,-6,49,22,17,29.97,29.80,13,5,13,0.00
2013-3-6,43,41,37,36,21,3,83,46,23,29.85,29.47,38,16,38,0.00
2013-3-7,50,42,37,9,4,-1,23,20,17,30.00,29.85,23,9,23,0.00
2013-3-8,47,40,34,7,2,-3,24,20,18,30.15,29.91,31,9,31,0.00
2013-3-9,69,47,32,19,6,-4,32,19,15,30.21,30.12,13,4,13,0.00
2013-3-10,62,44,30,39,18,4,88,41,17,30.27,30.18,14,4,14,0.00
2013-3-11,58,51,42,50,35,18,93,62,22,30.21,29.91,15,5,15,0.00
2013-3-12,65,56,42,60,36,4,90,51,21,29.91,29.53,24,10,24,0.00
2013-3-13,57,44,31,18,7,3,50,23,17,29.88,29.71,24,7,24,0.00
2013-3-14,45,41,33,7,1,-4,20,18,17,29.94,29.83,26,11,26,0.00
2013-3-15,56,38,22,12,-1,-11,22,19,17,29.94,29.65,21,6,21,0.00
2013-3-16,49,42,38,32,13,3,76,33,17,29.85,29.62,18,5,18,0.00
2013-3-17,43,38,32,33,11,-2,91,40,18,30.21,29.83,16,5,16,0.00
2013-3-18,43,38,34,42,14,-3,94,45,18,30.24,29.77,18,8,18,0.00
2013-3-19,61,47,39,44,25,-1,93,55,17,29.80,29.59,15,5,15,0.00
2013-3-20,58,42,28,13,3,-7,23,19,17,29.85,29.65,23,7,23,0.00
2013-3-21,45,36,29,15,0,-7,45,22,18,29.74,29.56,23,8,23,0.00
2013-3-22,50,36,27,9,-2,-8,21,20,17,29.77,29.71,23,9,23,0.00
2013-3-25,40,38,36,36,31,20,93,77,45,29.59,29.32,20,6,20,0.00
2013-3-26,59,45,35,36,18,4,93,44,17,29.83,29.59,15,6,15,0.00
2013-3-27,56,45,37,12,7,2,30,21,17,29.94,29.83,26,8,26,0.00
2013-3-28,53,43,34,14,6,-1,41,22,17,30.06,29.88,20,6,20,0.00
2013-3-29,60,47,36,15,7,-1,30,19,17,30.12,30.03,17,5,17,0.00
2013-3-30,68,48,30,18,10,-2,48,23,15,30.12,30.00,16,3,16,0.00
2013-3-31,60,48,36,53,25,1,94,48,17,30.06,29.62,20,5,20,0.00
2013-4-1,71,53,40,48,24,-1,94,44,14,29.85,29.59,22,8,22,0.00
2013-4-2,51,40,25,11,1,-9,21,19,17,30.06,29.85,25,7,25,0.00
2013-4-3,55,40,24,12,2,-10,22,19,17,30.27,30.06,27,7,27,0.00
2013-4-4,62,41,24,16,2,-9,22,19,16,30.33,30.00,13,4,13,0.00
2013-4-5,67,51,39,41,20,5,92,39,15,30.03,29.71,22,5,22,0.00
2013-4-6,64,46,35,16,5,-3,24,18,16,30.24,29.91,16,5,16,0.00
2013-4-7,72,53,36,20,13,2,39,20,14,30.21,29.91,25,7,25,0.00
2013-4-8,89,67,50,32,22,14,35,19,11,29.94,29.83,15,5,15,0.00
2013-4-9,91,74,59,32,26,18,35,17,11,29.85,29.71,20,6,20,0.00
2013-4-10,97,78,62,53,28,19,62,17,11,29.74,29.53,58,6,58,0.00
2013-4-11,86,66,55,63,43,23,92,52,14,29.68,29.56,22,6,22,0.00
2013-4-12,56,53,50,54,49,36,94,87,49,29.65,29.44,15,8,16,0.00
2013-4-13,69,56,44,53,30,11,94,49,15,29.80,29.53,16,4,16,0.00
2013-4-14,73,56,43,47,24,11,96,39,14,29.97,29.80,17,4,17,0.00
2013-4-15,67,55,50,29,17,10,37,23,15,30.15,29.94,17,7,17,0.00
2013-4-16,84,65,52,48,29,20,85,29,13,30.15,29.91,17,6,17,0.00
2013-4-17,73,64,54,58,34,20,86,37,16,30.06,29.91,15,5,15,0.00
2013-4-18,67,60,55,60,38,12,93,49,17,30.06,29.83,23,8,23,0.00
2013-4-19,86,71,58,66,42,27,93,41,13,29.83,29.41,61,10,61,0.00
2013-4-20,64,54,45,55,21,3,93,35,16,30.12,29.53,21,7,21,0.00
2013-4-21,62,46,36,19,7,-2,44,20,17,30.45,30.12,17,6,17,0.00
2013-4-22,58,47,37,23,14,6,55,29,17,30.45,30.27,21,8,21,0.00
2013-4-23,58,51,45,28,18,9,43,29,17,30.27,29.97,16,7,16,0.00
2013-4-24,82,62,43,52,31,17,94,44,12,29.97,29.62,19,5,19,0.00
2013-4-25,73,56,45,35,13,6,37,19,14,30.09,29.71,27,6,27,0.00
2013-4-26,74,55,39,36,15,6,74,22,14,30.24,30.09,16,3,16,0.00
2013-4-27,76,56,38,29,17,9,67,24,13,30.27,30.09,10,3,10,0.00
2013-4-28,80,59,40,24,16,6,46,19,12,30.12,30.00,18,5,18,0.00
2013-4-29,63,59,56,59,52,18,93,78,25,30.03,29.91,15,6,15,0.00
2013-4-30,70,61,52,57,32,11,94,44,15,30.12,29.94,18,7,18,0.00
2013-5-1,72,58,48,28,18,11,39,22,14,30.24,30.12,16,6,16,0.00
2013-5-2,73,58,44,45,24,12,94,35,14,30.24,30.12,14,4,14,0.00
2013-5-3,68,56,47,48,24,12,93,36,15,30.18,30.12,18,6,18,0.00
2013-5-4,74,57,47,48,25,12,94,37,13,30.15,30.00,20,5,20,0.00
2013-5-5,68,54,48,25,17,10,39,24,15,30.09,29.97,15,7,15,0.00
2013-5-6,71,59,48,53,37,25,93,49,19,30.03,29.91,15,7,15,0.00
2013-5-7,72,64,60,64,56,34,94,77,29,29.94,29.80,19,8,19,0.00
2013-5-8,87,68,61,67,49,19,93,63,12,29.83,29.74,16,3,16,0.00
2013-5-9,84,68,61,67,44,20,93,53,13,29.77,29.68,13,2,13,0.00
2013-5-10,97,75,59,64,42,24,94,43,11,29.80,29.62,21,3,21,0.00
2013-5-11,89,72,66,65,50,27,93,57,13,29.71,29.47,17,4,17,0.00
2013-5-12,72,64,50,65,31,9,93,39,14,29.77,29.47,23,7,23,0.00
2013-5-13,68,53,39,22,12,0,41,20,15,29.97,29.77,22,5,22,0.00
2013-5-14,72,54,36,33,14,4,47,22,14,30.03,29.88,19,4,19,0.00
2013-5-15,85,67,52,50,30,20,57,29,11,29.91,29.50,13,5,13,0.00
2013-5-16,89,75,65,68,41,26,92,37,13,29.65,29.53,23,4,23,0.00
2013-5-17,83,70,55,45,26,16,63,22,11,29.94,29.65,15,4,15,0.00
2013-5-18,77,65,59,62,36,20,94,39,13,30.03,29.94,15,6,15,0.00
2013-5-19,71,67,64,67,59,42,93,77,38,30.00,29.88,16,6,16,0.00
2013-5-20,91,76,68,71,51,29,93,53,12,29.91,29.74,9,2,9,0.00
2013-5-21,93,78,69,72,52,30,93,53,12,29.80,29.62,13,3,13,0.00
2013-5-22,99,81,71,73,52,31,93,49,10,29.71,29.56,13,3,13,0.00
2013-5-23,93,78,68,71,50,28,93,48,12,29.71,29.50,13,4,13,0.00
2013-5-24,68,62,56,66,54,40,93,76,57,29.85,29.47,15,5,15,0.00
2013-5-25,68,59,48,41,21,10,57,27,15,29.91,29.80,8,8,8,0.00
2013-5-26,76,62,50,27,16,10,36,17,13,30.00,29.88,8,8,8,0.00
2013-5-27,86,66,45,43,22,15,82,22,11,30.06,29.97,8,8,8,0.00
2013-5-28,74,65,58,67,49,22,94,60,25,30.00,29.88,8,8,8,0.00
2013-5-29,103,82,67,71,45,29,93,41,9,29.91,29.80,8,8,8,0.00
2013-5-30,105,88,70,61,42,29,70,28,9,29.97,29.83,8,7,8,0.00
2013-5-31,105,85,71,71,45,30,92,35,9,29.97,29.77,13,5,13,0.00
2013-6-1,102,87,71,70,43,31,91,31,10,29.77,29.59,6,4,6,0.00
2013-6-2,101,83,72,71,45,30,94,35,10,29.62,29.47,12,5,12,0.00
2013-6-3,92,77,70,73,58,28,94,66,12,29.68,29.50,16,2,16,0.00
2013-6-4,83,71,58,68,36,16,92,40,12,29.88,29.62,14,4,14,0.00
2013-6-5,91,70,53,56,32,17,92,34,11,30.00,29.80,10,3,10,0.00
2013-6-6,80,69,58,68,43,20,94,48,13,29.88,29.68,22,7,22,0.00
2013-6-7,75,72,68,73,70,66,94,92,91,29.68,29.29,17,7,17,0.00
2013-6-8,89,75,67,66,47,27,93,46,13,29.80,29.35,13,4,13,0.00
2013-6-9,94,76,66,68,44,26,93,43,12,29.91,29.80,13,3,13,0.00
2013-6-10,85,76,71,78,68,49,94,77,32,29.85,29.50,18,6,18,0.00
2013-6-11,87,78,72,72,46,28,93,43,13,29.59,29.41,19,7,19,0.00
2013-6-12,90,79,69,66,41,28,89,32,13,29.62,29.47,16,4,16,0.00
2013-6-13,93,76,70,74,54,29,96,54,12,29.50,29.09,20,6,20,0.00
2013-6-14,83,68,60,63,39,19,95,43,13,29.62,29.18,23,7,23,0.00
2013-6-15,89,74,60,64,39,23,95,40,12,29.74,29.62,15,3,15,0.00
2013-6-16,95,76,62,72,49,28,94,52,11,29.68,29.50,18,3,18,0.00
2013-6-17,97,80,70,71,49,27,94,49,11,29.59,29.50,14,4,14,0.00
2013-6-18,84,73,68,76,63,46,94,75,29,29.56,29.44,20,5,20,0.00
2013-6-19,86,72,61,67,40,21,93,42,11,29.80,29.50,15,5,15,0.00
2013-6-20,91,72,59,61,34,19,94,33,12,29.91,29.80,13,4,13,0.00
2013-6-21,88,72,58,59,32,18,92,29,11,29.94,29.85,14,4,14,0.00
2013-6-22,95,77,63,65,41,27,94,38,11,29.88,29.74,15,3,15,0.00
2013-6-23,93,78,68,78,58,33,93,60,14,29.80,29.65,10,2,10,0.00
2013-6-24,101,84,74,77,52,28,93,45,10,29.71,29.56,17,3,17,0.00
2013-6-25,101,85,73,73,48,31,94,39,10,29.62,29.38,20,4,20,0.00
2013-6-26,103,84,73,74,50,19,95,44,9,29.50,29.32,13,4,13,0.00
2013-6-27,96,82,75,76,57,35,94,52,14,29.41,29.12,17,4,17,0.00
2013-6-28,103,82,73,76,53,28,93,51,9,29.12,28.97,16,3,16,0.00
2013-6-29,102,84,71,79,47,27,94,42,10,29.15,29.00,7,2,7,0.00
2013-6-30,80,77,76,78,74,60,94,90,57,29.23,29.15,3,3,3,0.00
2013-7-1,90,80,78,76,69,48,92,73,24,29.47,29.35,13,6,13,0.00
2013-7-2,94,80,77,76,68,36,92,76,14,29.68,29.44,15,6,15,0.00
2013-7-3,102,82,77,76,65,32,90,67,10,29.71,29.56,10,3,10,0.00
2013-7-4,99,87,78,77,53,31,94,45,10,29.68,29.53,6,1,6,0.00
2013-7-5,103,88,77,78,51,31,93,41,9,29.59,29.44,11,2,11,0.00
2013-7-6,105,89,78,80,51,31,93,39,9,29.50,29.35,12,4,12,0.00
2013-7-7,107,87,75,76,52,31,92,45,9,29.41,29.26,22,4,22,0.00
2013-7-8,99,80,73,74,53,28,93,50,11,29.56,29.32,30,2,30,0.00
2013-7-9,100,83,75,74,53,30,93,45,10,29.50,29.32,11,1,11,0.00
2013-7-10,102,85,77,79,54,31,93,45,10,29.38,29.18,13,3,13,0.00
2013-7-11,94,82,75,77,55,30,93,50,11,29.29,29.15,11,3,11,0.00
2013-7-12,77,75,73,74,63,38,94,72,25,29.29,29.21,17,6,17,0.00
2013-7-13,99,81,76,80,67,32,92,72,11,29.56,29.29,12,4,12,0.00
2013-7-14,107,88,79,77,59,32,92,56,9,29.62,29.50,11,2,11,0.00
2013-7-15,100,84,76,78,59,31,91,58,10,29.62,29.50,12,2,12,0.00
2013-7-16,100,91,80,70,37,30,73,17,10,29.53,29.38,14,5,14,0.00
2013-7-17,104,88,76,76,48,30,90,36,9,29.53,29.32,10,2,10,0.00
2013-7-18,112,91,78,80,52,31,92,40,7,29.41,29.21,11,3,11,0.00
2013-7-19,110,93,82,82,52,31,91,37,8,29.23,29.06,15,4,15,0.00
2013-7-20,104,88,75,80,51,31,93,40,9,29.09,28.97,23,4,23,0.00
2013-7-21,109,84,76,75,62,30,94,64,8,29.15,29.09,11,2,11,0.00
2013-7-22,105,83,77,76,65,33,92,63,9,29.26,29.00,19,3,19,0.00
2013-7-23,98,82,77,78,62,30,92,67,11,29.03,28.88,14,4,14,0.00
2013-7-24,90,81,70,56,35,27,40,20,13,29.15,29.03,14,5,14,0.00
2013-7-25,76,68,63,62,32,25,84,27,15,29.29,29.15,14,5,14,0.00
2013-7-26,97,78,66,67,41,22,91,37,11,29.32,29.26,11,3,11,0.00
2013-7-27,100,80,69,71,45,25,93,41,10,29.32,29.18,15,4,15,0.00
2013-7-28,102,79,71,75,52,30,92,46,10,29.21,29.12,15,5,15,0.00
2013-7-29,86,71,66,72,60,20,92,76,11,29.38,29.21,8,2,8,0.00
2013-7-30,95,75,63,63,37,22,89,32,11,29.47,29.38,12,3,12,0.00
2013-7-31,92,78,66,66,42,30,91,38,12,29.50,29.29,9,0,9,0.00
2013-8-1,84,74,71,73,65,45,93,76,29,29.29,29.09,15,4,15,0.00
2013-8-2,98,79,70,71,50,28,92,51,11,29.21,29.09,10,2,10,0.00
2013-8-3,86,74,69,71,58,27,92,64,13,29.21,29.15,10,2,10,0.00
2013-8-4,84,76,66,68,43,26,92,45,14,29.23,29.12,6,4,6,0.00
2013-8-5,73,70,60,58,30,23,88,27,16,29.41,29.23,8,4,8,0.00
2013-8-6,73,73,73,24,24,24,16,16,16,29.35,29.29,8,8,8,0.00
2013-8-7,73,73,73,24,24,24,16,16,16,29.41,29.29,8,8,8,0.00
2013-8-8,73,73,73,24,24,24,16,16,16,29.32,29.23,8,8,8,0.00
2013-8-9,73,73,73,24,24,24,16,16,16,29.23,29.06,8,8,8,0.00
2013-8-10,90,74,72,66,30,24,80,22,12,29.26,29.12,8,8,8,0.00
2013-8-11,99,78,69,73,48,24,93,47,10,29.32,29.21,8,8,8,0.00
2013-8-12,86,81,73,73,51,40,92,45,21,29.32,29.09,8,3,8,0.00
2013-8-13,85,85,85,42,42,42,22,22,22,29.09,28.94,2,2,2,0.00
2013-8-14,85,78,70,42,30,19,22,17,13,29.26,28.97,2,2,2,0.00
2013-8-15,88,74,60,38,26,18,43,19,11,29.32,29.26,10,2,10,0.00
2013-8-16,92,71,58,61,35,22,92,35,11,29.35,29.26,10,2,10,0.00
2013-8-17,85,71,62,62,44,22,94,52,12,29.41,29.32,12,3,12,0.00
2013-8-18,77,71,69,45,41,29,42,35,18,29.35,29.21,10,4,10,0.00
2013-8-19,88,76,71,68,40,26,90,32,13,29.23,28.35,11,3,11,0.00
2013-8-20,101,82,69,71,47,28,92,43,10,29.91,25.81,12,2,12,0.00
2013-8-21,99,82,73,71,50,28,90,44,11,29.97,29.83,13,2,13,0.00
2013-8-22,95,81,76,75,56,31,91,50,12,29.83,29.65,10,3,13,0.00
2013-8-23,99,77,68,70,45,24,90,40,11,29.83,29.65,11,4,11,0.00
2013-8-24,98,76,63,66,43,22,91,44,11,30.06,29.83,13,4,13,0.00
2013-8-25,93,74,62,67,42,20,93,44,10,30.15,30.00,11,2,11,0.00
2013-8-26,94,76,64,64,42,27,91,39,11,30.00,29.71,11,3,11,0.00
2013-8-27,105,84,74,61,43,28,61,29,9,29.71,29.59,15,2,15,0.00
2013-8-28,89,78,75,74,62,40,90,62,21,29.65,29.53,13,2,13,0.00
2013-8-29,99,81,72,78,57,30,91,56,11,29.77,29.59,13,5,13,0.00
2013-8-30,94,79,71,76,53,34,92,50,14,29.83,29.62,13,3,13,0.00
2013-8-31,99,83,75,75,52,31,91,45,11,29.62,29.50,14,4,14,0.00
2013-9-1,98,85,77,76,55,35,91,47,11,29.56,29.44,12,3,12,0.00
2013-9-2,88,81,79,77,67,39,90,71,19,29.50,29.38,13,3,13,0.00
2013-9-3,97,82,65,75,47,25,90,40,11,29.62,29.38,15,5,15,0.00
2013-9-4,98,76,61,59,37,20,88,30,11,29.83,29.62,13,4,13,0.00
2013-9-5,98,75,60,66,38,17,92,36,11,29.85,29.71,15,4,15,0.00
2013-9-6,95,69,53,37,26,14,48,23,9,30.03,29.85,12,4,12,0.00
2013-9-7,96,70,52,56,38,20,92,41,11,29.88,29.68,11,2,11,0.00
2013-9-8,102,78,60,67,41,26,90,34,10,29.80,29.59,17,4,17,0.00
2013-9-9,83,69,55,59,34,22,68,31,14,30.00,29.80,13,6,13,0.00
2013-9-10,98,82,72,71,53,35,87,44,13,29.97,29.83,13,4,13,0.00
2013-9-11,103,86,78,75,52,31,90,42,10,29.91,29.74,14,3,14,0.00
2013-9-12,98,81,74,74,58,31,90,54,11,29.74,29.44,14,4,14,0.00
2013-9-13,92,74,62,74,46,19,91,46,11,29.62,29.41,17,5,17,0.00
2013-9-14,84,64,51,53,30,16,92,36,12,29.91,29.62,15,4,15,0.00
2013-9-15,89,67,49,48,36,18,93,43,11,30.00,29.85,14,2,14,0.00
2013-9-16,92,69,59,65,40,20,91,42,12,30.00,29.80,15,4,15,0.00
2013-9-17,85,64,48,38,25,15,56,27,11,30.21,30.00,13,5,13,0.00
2013-9-18,85,62,50,32,27,20,49,32,11,30.12,29.97,9,3,9,0.00
2013-9-19,94,71,64,44,32,20,47,27,12,29.97,29.85,8,5,8,0.00
2013-9-20,96,69,62,47,38,25,57,37,11,29.88,29.74,13,5,13,0.00
2013-9-21,88,71,57,71,46,25,93,53,13,29.77,29.44,20,4,20,0.00
2013-9-22,88,70,54,68,40,16,92,46,10,29.71,29.44,14,5,14,0.00
2013-9-23,84,63,49,50,30,15,89,38,11,29.85,29.71,17,4,17,0.00
2013-9-24,86,63,48,51,33,16,93,45,11,29.88,29.71,15,3,15,0.00
2013-9-25,96,68,52,60,39,18,92,50,9,29.74,29.65,10,2,10,0.00
2013-9-26,93,68,57,64,42,18,91,53,10,29.85,29.71,9,2,9,0.00
2013-9-27,90,68,58,65,41,18,89,48,12,30.03,29.85,13,3,13,0.00
2013-9-28,92,68,56,61,38,19,90,42,11,30.09,29.97,13,4,13,0.00
2013-9-29,96,67,56,62,40,20,93,48,11,30.00,29.85,13,3,13,0.00
2013-9-30,97,68,53,59,40,18,93,50,10,29.85,29.77,11,2,11,0.00
2013-10-1,98,72,58,61,43,26,92,47,11,29.83,29.71,14,3,14,0.00
2013-10-2,99,76,65,68,46,27,92,46,11,29.83,29.74,15,3,15,0.00
2013-10-3,95,76,65,68,47,28,90,47,11,29.88,29.80,8,2,8,0.00
2013-10-4,105,80,66,67,49,28,91,48,9,29.85,29.74,12,2,12,0.00
2013-10-5,111,83,70,74,53,28,91,53,8,29.83,29.71,10,3,10,0.00
2013-10-6,99,78,72,71,55,39,90,53,15,29.80,29.68,15,6,15,0.00
2013-10-7,87,72,65,69,53,35,90,55,21,29.77,29.56,29,7,29,0.00
2013-10-8,78,65,52,46,34,17,79,35,13,30.03,29.77,16,3,16,0.00
2013-10-9,68,60,54,47,32,24,66,36,23,30.09,29.97,17,8,17,0.00
2013-10-10,67,63,59,64,57,42,91,83,44,29.97,29.77,22,10,22,0.00
2013-10-11,71,68,66,66,62,46,91,84,42,29.80,29.71,20,9,20,0.00
2013-10-12,81,68,64,63,40,26,89,39,17,29.97,29.80,22,9,22,0.00
2013-10-13,75,65,56,62,38,25,89,41,18,30.12,29.97,20,8,20,0.00
2013-10-14,92,64,53,56,39,20,89,49,12,30.12,30.00,10,4,10,0.00
2013-10-15,94,66,51,57,37,16,92,47,9,30.03,29.88,11,2,11,0.00
2013-10-16,88,67,58,62,46,30,89,51,15,29.88,29.71,8,3,8,0.00
2013-10-17,84,71,64,66,51,34,93,55,19,29.71,29.50,13,4,13,0.00
2013-10-18,82,63,49,45,27,14,78,30,12,29.77,29.53,24,5,24,0.00
2013-10-19,75,58,46,58,37,20,94,56,16,29.77,29.56,16,3,16,0.00
2013-10-20,79,54,45,33,22,11,53,30,12,29.91,29.59,17,6,22,0.00
2013-10-21,80,57,41,45,28,16,89,40,13,29.97,29.80,19,3,19,0.00
2013-10-22,76,58,46,52,31,20,89,40,16,29.80,29.59,14,4,14,0.00
2013-10-23,74,52,42,42,20,8,81,31,14,29.65,29.44,17,4,17,0.00
2013-10-24,63,47,39,24,14,4,53,29,16,29.91,29.65,23,6,23,0.00
2013-10-25,70,47,34,31,16,6,80,32,15,30.12,29.91,20,4,20,0.00
2013-10-26,63,47,32,34,15,6,89,33,16,30.12,29.80,19,4,19,0.00
2013-10-27,72,53,38,26,15,6,62,24,14,30.03,29.77,18,5,18,0.00
2013-10-28,82,53,35,41,26,11,93,47,12,30.12,30.00,10,1,10,0.00
2013-10-29,86,57,41,45,28,12,88,41,11,30.21,30.12,11,3,11,0.00
2013-10-30,66,56,48,57,46,34,93,74,32,30.18,29.97,8,1,8,0.00
2013-10-31,73,64,53,63,45,32,93,57,23,30.03,29.59,18,4,18,0.00
2013-11-1,76,68,61,63,48,36,92,52,24,29.59,29.38,19,6,25,0.00
2013-11-2,86,64,50,68,37,14,93,49,12,29.62,29.38,15,3,15,0.00
2013-11-3,74,51,32,33,17,0,61,28,14,30.27,29.59,19,6,19,0.00
2013-11-4,69,42,28,20,10,-1,49,28,15,30.45,30.27,16,3,16,0.00
2013-11-5,70,51,36,45,24,14,90,38,15,30.45,30.30,11,4,11,0.00
2013-11-6,81,59,43,57,36,20,95,51,14,30.30,29.88,14,4,14,0.00
2013-11-7,68,58,46,61,38,12,92,53,25,29.88,29.62,20,6,20,0.00
2013-11-8,62,44,33,16,9,2,46,25,17,30.12,29.83,23,6,23,0.00
2013-11-9,62,45,29,34,14,6,89,35,16,30.18,29.85,15,4,15,0.00
2013-11-10,71,51,40,20,14,5,40,24,14,30.03,29.77,26,7,26,0.00
2013-11-11,66,49,33,22,12,4,53,24,16,30.12,29.85,15,4,15,0.00
2013-11-12,51,40,24,21,5,-9,45,23,18,30.21,29.83,21,6,21,0.00
2013-11-13,58,35,21,12,3,-7,44,27,16,30.27,30.18,23,4,23,0.00
2013-11-14,63,43,28,16,7,-2,40,24,16,30.21,30.03,17,4,17,0.00
2013-11-15,74,44,31,31,17,7,88,38,14,30.09,29.97,10,2,10,0.00
2013-11-16,55,50,44,48,35,20,90,58,34,30.18,30.09,10,2,10,0.00
2013-11-17,81,62,51,62,42,27,92,52,17,30.09,29.62,15,4,15,0.00
2013-11-18,78,63,49,63,26,8,88,29,13,29.71,29.53,26,8,26,0.00
2013-11-19,64,46,32,16,6,-1,30,18,16,30.21,29.71,24,9,24,0.00
2013-11-20,68,38,27,18,8,-4,43,30,15,30.42,30.21,9,2,9,0.00
2013-11-21,59,44,28,26,14,4,43,31,17,30.42,30.21,9,3,9,0.00
2013-11-22,59,54,49,47,34,26,69,46,35,30.21,29.83,13,3,13,0.00
2013-11-23,57,45,32,50,10,-4,82,25,17,30.03,29.83,25,9,25,0.00
2013-11-24,45,29,23,3,-6,-10,22,21,17,30.36,30.03,30,10,30,0.00
2013-11-25,47,30,19,4,-6,-12,33,21,17,30.42,30.21,12,5,12,0.00
2013-11-26,64,40,32,61,20,-5,94,53,18,30.24,29.44,25,6,25,0.00
2013-11-27,70,48,30,67,35,-3,93,66,22,29.85,29.29,28,9,28,0.00
2013-11-28,54,34,24,12,1,-9,40,24,16,30.42,29.85,24,6,24,0.00
2013-11-29,62,37,23,22,7,-6,87,33,16,30.62,30.36,14,3,14,0.00
2013-11-30,59,35,21,16,7,-2,46,31,17,30.65,30.27,10,2,10,0.00
2013-12-1,64,40,28,26,14,3,83,39,16,30.27,29.94,9,1,9,0.00
2013-12-2,56,42,35,23,16,10,50,35,20,29.94,29.71,6,1,6,0.00
2013-12-3,71,47,36,26,18,8,65,34,14,29.88,29.74,9,1,9,0.00
2013-12-4,61,49,36,49,27,18,82,44,24,29.94,29.85,8,2,8,0.00
2013-12-5,67,61,54,60,48,36,94,65,35,29.94,29.80,13,4,13,0.00
2013-12-6,68,58,44,66,52,35,93,82,48,30.00,29.74,16,6,16,0.00
2013-12-7,57,41,30,45,22,4,94,53,17,30.42,29.94,20,6,20,0.00
2013-12-8,38,32,27,34,14,-1,88,49,25,30.47,30.15,15,6,15,0.00
2013-12-9,48,41,38,40,34,20,94,78,38,30.18,29.91,11,2,11,0.00
2013-12-10,50,38,30,40,28,2,94,70,29,30.09,29.83,11,2,11,0.00
2013-12-11,50,31,21,12,5,-2,59,35,18,30.24,30.06,12,2,12,0.00
2013-12-12,46,27,16,24,-1,-12,82,31,17,30.24,30.12,15,4,15,0.00
2013-12-13,53,33,19,11,-1,-10,36,24,16,30.21,30.03,14,4,16,0.00
2013-12-14,44,37,30,42,19,1,94,53,21,30.27,29.56,17,5,17,0.00
2013-12-15,57,41,31,42,19,1,94,49,21,29.83,29.50,23,7,23,0.00
2013-12-16,50,34,25,8,0,-8,32,23,16,30.12,29.83,17,5,17,0.00
2013-12-17,41,34,28,34,10,-7,89,40,20,30.09,29.77,11,4,11,0.00
2013-12-18,51,35,27,30,10,-3,88,40,16,30.12,29.85,17,5,18,0.00
2013-12-19,61,40,27,16,9,4,52,30,17,30.12,29.88,10,3,10,0.00
2013-12-20,64,51,42,37,16,5,45,25,16,30.00,29.83,10,5,13,0.00
2013-12-21,76,63,54,43,32,28,45,33,21,29.88,29.80,20,7,20,0.00
2013-12-22,72,67,62,64,47,37,88,50,34,29.88,29.74,26,8,26,0.00
2013-12-23,70,60,40,67,49,12,93,71,30,30.06,29.80,25,5,25,0.00
2013-12-24,54,36,24,16,5,-10,52,28,18,30.33,30.03,26,7,26,0.00
2013-12-25,54,30,18,8,-3,-11,42,24,16,30.45,30.30,17,4,17,0.00
2013-12-26,54,32,21,15,8,1,58,37,18,30.30,30.12,13,2,13,0.00
2013-12-27,56,37,25,23,10,-1,85,38,16,30.33,30.21,14,3,14,0.00
2013-12-28,66,44,31,17,11,4,50,27,15,30.21,30.00,13,4,13,0.00
2013-12-29,57,48,42,54,33,4,95,64,19,30.00,29.41,27,6,27,0.00
2013-12-30,52,41,28,45,18,-3,94,44,24,30.09,29.71,17,5,17,0.00
2013-12-31,47,33,23,10,0,-7,37,24,19,30.24,29.97,21,5,26,0.00
2014-1-1,56,34,21,33,8,-2,90,37,17,30.33,30.06,12,3,12,0.00
2014-1-2,40,35,30,34,20,12,91,56,38,30.06,29.50,20,7,20,0.00